User: anonymous   Login
Location: Unspecified
(0.0000°N, 0.0000°E)
Time: 14:45:25
(UTC+00:00)
Language:

CBERS 2 - Orbit

View from above orbital plane
View from above orbital plane
View from above satellite
View from above satellite

Ground track
Ground track

The orbit data is extracted from the following two-line orbital elements,

1 28057U 03049A   17202.88321630 +.00000016 +00000-0 +20338-4 0  9998
2 28057 098.3370 157.1896 0001994 085.8670 274.2746 14.35565481720494
Epoch (UTC): 21 July 2017 21:11:49
Eccentricity: 0.0001994
inclination: 98.3370°
perigee height: 772 km
apogee height: 774 km
right ascension of ascending node: 157.1896°
argument of perigee: 85.8670°
revolutions per day: 14.35565481
mean anomaly at epoch: 274.2746°
orbit number at epoch: 72049

The dashed part of the orbit path shows where the satellite is in the earth's shadow,  

DLR